Zurück zum Katalog

GLOBALSTAR M045

AktivKommunikationLEO
NORAD 25676·PAYLOAD·🇺🇸 United States

Gestartet Apr 15, 1999 von Baikonur Cosmodrome

Loading…

Nächste Überflüge (nächste 24 Stunden)

TLE

AktuellSource: Space-Track

Epoche: Sep 13, 2026, 17:44 UTC

1 25676U 99019A   26256.73909109 -.00000068  00000-0  22333-3 0  9994
2 25676  51.9954  92.5249 0000743  71.5491   9.4726 12.27078011249072

Verfolge GLOBALSTAR M045 in Echtzeit mit AllMySat

Download on the App Store